Date,TemperatureHighF,TemperatureAvgF,TemperatureLowF,DewpointHighF,DewpointAvgF,DewpointLowF,HumidityHigh,HumidityAvg,HumidityLow,PressureMaxIn,PressureMinIn,WindSpeedMaxMPH,WindSpeedAvgMPH,GustSpeedMaxMPH,PrecipitationSumIn
2013-1-1,39.4,36.9,30.6,32.1,29.9,21.1,83,76,67,30.04,29.90,11,2,11,0.00
2013-1-2,31.6,27.6,23.1,21.7,17.7,15.7,79,66,55,30.24,29.99,19,3,19,0.00
2013-1-3,34.1,26.8,21.1,22.1,18.4,15.4,82,71,56,30.24,30.12,13,2,15,0.00
2013-1-4,38.4,33.0,29.3,25.3,23.0,21.3,76,67,57,30.16,30.04,17,3,17,0.00
2013-1-5,38.9,31.2,26.1,25.6,23.0,20.8,87,72,57,30.38,30.10,20,2,20,0.00
2013-1-6,47.3,37.3,25.7,34.6,29.4,24.6,97,75,52,30.23,30.01,12,1,12,0.01
2013-1-7,43.1,36.6,22.9,32.0,28.7,21.3,95,74,58,30.42,30.12,21,2,21,0.00
2013-1-8,49.4,32.5,21.7,35.3,28.1,20.3,96,85,58,30.44,30.37,8,1,8,0.00
2013-1-9,48.0,35.5,22.8,40.8,32.0,21.8,97,88,74,30.40,30.20,12,1,13,0.01
2013-1-10,47.1,40.4,33.3,33.2,30.1,27.9,87,67,54,30.57,30.33,15,2,16,0.00
2013-1-11,44.8,38.9,30.8,42.2,35.8,27.9,99,89,78,30.51,30.09,10,1,11,0.46
2013-1-12,56.1,44.7,38.8,50.6,43.6,38.5,100,96,81,30.18,30.09,5,0,5,0.01
2013-1-13,47.5,44.0,38.8,47.5,43.9,38.5,100,100,99,30.15,29.98,8,2,8,0.01
2013-1-14,51.8,48.1,39.4,51.0,44.5,36.5,100,88,63,30.29,29.94,18,2,18,0.17
2013-1-15,39.5,37.0,32.9,38.4,33.3,28.9,97,87,75,30.34,30.18,11,2,11,0.40
2013-1-16,37.9,34.1,32.4,37.0,33.5,31.4,99,98,95,30.18,29.82,12,1,12,0.97
2013-1-17,40.7,38.0,35.0,37.5,31.8,29.6,96,79,69,30.12,29.94,18,3,18,0.00
2013-1-18,35.6,29.3,23.2,29.6,18.5,10.4,80,64,41,30.49,30.02,25,3,31,0.00
2013-1-19,48.7,38.0,26.6,32.7,27.6,18.2,84,67,50,30.42,29.93,18,4,18,0.00
2013-1-20,54.2,41.0,28.3,34.9,25.6,15.7,74,56,32,30.08,29.76,24,4,27,0.00
2013-1-21,33.6,27.1,22.8,24.7,16.1,12.2,87,63,51,30.12,29.85,18,3,19,0.00
2013-1-22,23.5,16.5,11.7,17.9,1.1,-2.7,84,51,40,30.30,29.92,25,5,30,0.00
2013-1-23,19.2,13.3,9.1,6.1,2.0,-1.9,86,61,45,30.34,30.20,18,2,18,0.00
2013-1-24,24.2,17.7,10.3,10.2,5.7,-0.5,84,61,35,30.50,30.16,27,4,28,0.00
2013-1-25,20.3,15.4,5.5,14.1,6.8,1.5,92,70,47,30.53,30.14,11,2,11,0.00
2013-1-26,26.1,17.8,5.6,15.4,12.3,3.3,93,79,60,30.46,30.16,18,2,18,0.00
2013-1-27,33.7,19.8,6.2,19.3,13.3,3.9,92,77,51,30.60,30.46,16,1,16,0.00
2013-1-28,35.0,30.6,20.2,34.7,29.0,17.7,99,94,81,30.53,30.05,11,2,13,0.11
2013-1-29,60.7,44.6,34.2,52.6,42.5,33.9,100,93,74,30.15,30.01,11,1,12,0.03
2013-1-30,65.3,53.8,41.8,60.5,52.8,41.4,100,96,84,30.01,29.25,25,4,26,1.43
2013-1-31,60.2,40.9,26.9,59.9,30.3,12.4,100,67,45,29.86,29.07,32,7,37,1.29
2013-2-1,28.2,24.9,18.6,21.8,11.5,5.9,83,57,41,30.33,29.84,25,5,28,0.00
2013-2-2,25.9,20.6,13.3,22.7,12.5,5.7,94,71,52,30.36,30.05,16,2,17,0.00
2013-2-3,31.2,26.0,19.1,26.6,22.4,15.7,95,87,68,30.05,29.82,20,1,21,0.05
2013-2-4,30.9,25.1,18.6,23.6,15.4,11.0,85,67,52,30.09,29.93,14,2,16,0.00
2013-2-5,33.8,30.4,27.3,29.9,27.3,23.5,96,88,78,29.96,29.87,5,1,5,0.00
2013-2-6,38.6,31.7,25.2,30.4,26.1,19.6,98,81,60,30.36,29.95,21,2,21,0.02
2013-2-7,34.9,28.4,19.9,24.0,19.4,13.9,93,70,44,30.48,30.25,13,2,13,0.00
2013-2-8,36.4,33.7,30.0,34.7,31.4,23.7,98,91,73,30.25,29.71,22,3,25,0.14
2013-2-9,32.3,27.3,23.1,25.8,18.3,14.4,84,69,59,30.40,29.83,35,8,35,0.00
2013-2-10,41.8,29.7,15.4,26.8,16.0,10.2,86,59,29,30.50,30.30,11,2,11,0.00
2013-2-11,47.3,39.8,32.6,47.3,38.4,25.1,100,95,71,30.29,29.68,12,2,13,0.41
2013-2-12,44.9,39.1,27.4,36.4,28.9,24.6,89,67,54,29.99,29.79,19,3,19,0.00
2013-2-13,43.8,33.2,23.3,32.6,28.1,21.7,98,83,59,30.00,29.69,9,1,9,0.03
2013-2-14,45.6,36.0,32.2,33.5,30.5,25.3,99,82,47,30.03,29.76,12,2,13,0.22
2013-2-15,55.9,41.4,32.0,38.3,33.7,28.7,97,76,45,30.05,29.91,14,2,14,0.10
2013-2-16,34.2,31.9,28.6,32.5,27.9,17.1,99,86,62,30.00,29.83,19,2,19,0.09
2013-2-17,29.5,25.5,20.5,19.1,11.6,4.8,75,56,40,30.17,29.82,28,7,28,0.00
2013-2-18,36.9,26.3,18.2,18.5,11.8,6.4,68,55,36,30.39,30.17,21,4,23,0.00
2013-2-19,41.1,35.9,29.7,40.1,30.2,16.9,97,80,58,30.21,29.71,28,4,28,0.22
2013-2-20,35.0,27.9,22.8,25.3,16.0,11.4,74,61,48,30.11,29.81,22,6,22,0.00
2013-2-21,34.4,27.4,22.3,19.4,15.7,11.9,70,61,51,30.33,30.09,26,6,26,0.00
2013-2-22,33.9,29.3,23.2,30.4,22.5,17.0,91,76,65,30.40,30.24,12,2,12,0.00
2013-2-23,43.7,38.6,32.0,43.2,38.0,30.3,99,98,91,30.26,29.81,9,1,9,0.08
2013-2-24,43.7,37.6,30.4,38.8,31.2,21.8,99,79,56,30.08,29.78,26,4,26,0.00
2013-2-25,46.2,34.7,26.5,29.7,25.4,21.5,93,69,51,30.24,30.08,14,2,14,0.00
2013-2-26,42.6,34.4,23.4,36.8,30.5,22.2,97,86,70,30.28,29.69,28,4,28,0.24
2013-2-27,50.1,43.2,37.3,42.5,39.0,34.3,99,86,65,29.69,29.51,20,4,20,0.11
2013-2-28,44.2,39.6,33.4,36.8,33.0,27.3,91,78,55,29.69,29.59,13,2,13,0.00
2013-3-1,41.9,37.9,33.7,32.7,29.9,25.8,87,73,62,29.84,29.67,17,3,18,0.00
2013-3-2,37.9,33.4,30.2,26.1,23.8,22.6,77,68,56,29.85,29.76,20,4,20,0.00
2013-3-3,34.7,31.0,26.8,25.8,21.4,17.3,82,68,57,29.85,29.75,20,5,22,0.00
2013-3-4,37.2,30.9,26.9,23.5,20.5,17.4,71,65,55,30.02,29.85,23,6,29,0.00
2013-3-5,47.2,35.1,27.7,30.4,25.6,20.6,82,69,51,30.08,29.91,19,3,19,0.00
2013-3-6,39.0,36.6,33.5,35.7,32.7,27.4,95,86,70,29.97,29.73,31,6,33,0.24
2013-3-7,44.6,38.8,34.0,29.7,27.0,24.3,74,63,51,30.11,29.97,22,6,23,0.00
2013-3-8,42.7,36.8,30.0,29.7,26.0,22.1,88,65,58,30.27,30.10,28,7,28,0.00
2013-3-9,59.4,42.2,29.6,29.9,26.0,22.3,89,56,27,30.34,30.23,15,3,16,0.00
2013-3-10,57.3,41.3,25.0,35.7,29.2,23.0,94,67,32,30.37,30.23,11,3,14,0.00
2013-3-11,54.2,46.3,37.0,48.9,43.2,35.3,99,90,70,30.30,29.99,14,4,14,0.00
2013-3-12,56.7,49.9,41.1,55.9,46.7,32.6,99,89,70,29.99,29.70,20,5,21,1.78
2013-3-13,46.1,39.1,28.5,35.7,28.9,20.7,95,68,42,30.00,29.85,21,3,23,0.00
2013-3-14,40.3,34.0,28.4,20.9,18.1,14.4,73,53,37,30.04,29.94,32,6,32,0.00
2013-3-15,52.0,38.0,24.0,33.4,23.9,14.0,82,57,41,30.07,29.75,21,3,21,0.00
2013-3-16,43.4,36.6,32.4,34.4,31.5,28.3,96,82,65,29.94,29.72,11,2,13,0.12
2013-3-17,39.1,33.3,28.4,31.8,26.4,21.2,97,77,54,30.30,29.93,15,2,15,0.00
2013-3-18,36.4,32.6,29.4,33.4,24.9,16.3,97,75,53,30.36,29.90,17,3,18,0.39
2013-3-19,51.7,40.1,34.1,39.8,32.0,18.8,98,77,36,29.90,29.70,23,3,24,0.25
2013-3-20,47.4,38.2,28.0,24.5,20.9,17.6,76,51,32,29.97,29.77,21,3,21,0.00
2013-3-21,37.2,31.4,27.0,28.8,18.5,10.7,93,60,39,29.85,29.70,20,5,20,0.00
2013-3-22,40.4,32.3,25.6,26.5,21.0,15.1,82,64,47,30.00,29.85,20,4,20,0.00
2013-3-23,45.9,36.5,29.2,26.2,22.8,21.2,74,58,42,30.01,29.90,18,4,19,0.00
2013-3-24,45.3,35.6,22.4,29.1,23.2,19.6,90,63,40,30.03,29.69,12,2,12,0.00
2013-3-25,36.2,34.4,31.6,33.9,31.3,26.6,97,89,68,29.70,29.50,21,5,21,0.41
2013-3-26,50.1,39.6,31.9,35.9,32.5,26.6,96,78,43,29.94,29.67,18,3,18,0.07
2013-3-27,48.4,41.3,36.8,32.2,29.8,26.7,79,64,46,30.06,29.94,21,5,22,0.00
2013-3-28,45.9,40.6,34.5,33.6,29.9,27.8,81,66,52,30.18,30.04,20,4,20,0.00
2013-3-29,51.4,43.7,35.2,33.6,30.2,27.0,79,60,40,30.21,30.11,15,3,16,0.00
2013-3-30,57.4,41.8,25.8,34.6,28.3,24.6,96,64,30,30.22,30.10,15,1,15,0.00
2013-3-31,51.7,42.9,29.7,47.0,37.7,27.1,99,83,56,30.14,29.72,18,3,21,0.04
2013-4-1,61.2,45.5,35.9,46.4,34.8,15.0,100,70,37,29.97,29.68,29,4,29,0.01
2013-4-2,43.9,36.0,27.6,20.1,16.9,14.3,67,47,31,30.14,29.97,20,3,21,0.00
2013-4-3,45.6,35.7,23.6,21.4,16.9,12.2,79,48,29,30.35,30.14,23,4,26,0.00
2013-4-4,50.5,37.5,24.3,27.5,19.7,14.9,73,50,31,30.46,30.08,12,2,14,0.00
2013-4-5,61.0,47.8,36.4,36.7,28.9,18.5,95,54,25,30.09,29.78,19,4,22,0.00
2013-4-6,54.4,42.9,33.8,28.4,20.6,15.8,62,42,25,30.32,30.03,15,3,16,0.00
2013-4-7,61.8,49.8,38.3,45.7,37.1,26.3,82,62,47,30.29,29.98,23,5,23,0.00
2013-4-8,76.3,61.6,42.8,52.8,47.7,40.3,92,63,38,30.07,29.94,15,2,15,0.00
2013-4-9,83.0,69.3,51.7,56.7,53.6,48.4,90,60,34,30.01,29.88,18,3,18,0.00
2013-4-10,87.3,72.7,54.4,61.4,57.1,50.8,98,61,39,29.91,29.72,36,3,36,0.09
2013-4-11,79.1,63.0,50.5,65.2,57.4,46.8,100,84,56,29.87,29.77,17,3,24,0.01
2013-4-12,50.5,46.4,44.2,47.4,45.4,43.5,98,96,89,29.87,29.64,24,4,26,0.56
2013-4-13,61.9,49.8,38.3,44.0,39.7,34.3,99,72,42,29.97,29.76,17,2,19,0.00
2013-4-14,61.9,49.5,34.5,40.0,35.4,28.8,97,62,35,30.14,29.97,20,2,20,0.00
2013-4-15,60.9,52.0,46.5,47.3,42.0,34.2,82,69,56,30.31,30.13,14,4,15,0.00
2013-4-16,70.3,58.8,47.3,58.5,52.2,44.3,90,79,64,30.32,30.10,23,4,26,0.00
2013-4-17,70.8,60.4,54.8,58.1,52.0,45.4,98,76,42,30.25,30.08,16,2,16,0.00
2013-4-18,63.6,57.3,53.0,60.5,51.9,40.4,96,83,57,30.26,30.02,16,4,18,0.02
2013-4-19,74.8,64.0,52.2,66.2,60.8,50.8,98,90,73,30.02,29.57,26,5,28,1.26
2013-4-20,55.9,49.1,42.0,51.6,35.4,27.7,97,62,37,30.33,29.73,23,3,23,0.15
2013-4-21,53.9,43.3,34.5,35.0,26.8,21.1,83,53,34,30.60,30.33,15,3,17,0.00
2013-4-22,55.7,43.5,29.3,37.5,33.8,28.6,98,71,46,30.61,30.44,20,2,21,0.00
2013-4-23,57.2,48.2,41.9,45.3,40.6,34.9,94,75,62,30.44,30.12,15,2,15,0.00
2013-4-24,69.9,53.7,35.3,58.5,48.8,34.8,99,85,63,30.13,29.77,21,3,22,0.03
2013-4-25,61.2,50.0,39.3,51.4,34.8,31.0,90,58,33,30.29,29.92,22,4,29,0.00
2013-4-26,62.4,48.4,34.7,39.5,34.5,28.3,96,64,30,30.44,30.29,17,2,17,0.00
2013-4-27,38.5,35.8,33.3,35.0,33.5,31.8,95,91,86,30.42,30.41,1,0,1,0.00
2013-4-28,68.9,55.5,39.0,44.9,40.1,35.4,94,59,34,30.30,30.17,18,5,18,0.00
2013-4-29,56.4,53.9,50.3,55.6,51.7,40.3,98,93,61,30.18,30.08,17,3,17,0.57
2013-4-30,68.6,58.4,48.1,54.5,48.7,35.4,99,73,46,30.30,30.13,14,3,15,0.02
2013-5-1,70.9,54.8,37.2,44.7,38.0,32.1,94,58,26,30.44,30.29,14,2,14,0.00
2013-5-2,70.9,54.9,36.5,48.0,43.3,35.6,99,69,39,30.45,30.31,12,1,12,0.00
2013-5-3,66.6,54.3,41.6,46.3,42.4,35.8,98,68,34,30.40,30.31,16,2,18,0.00
2013-5-4,70.0,53.7,35.4,47.6,41.5,34.6,99,68,36,30.35,30.18,17,2,17,0.00
2013-5-5,65.0,52.2,38.5,45.6,41.1,36.8,96,68,43,30.27,30.16,14,2,14,0.00
2013-5-6,68.1,53.9,37.5,56.5,49.0,36.4,98,84,66,30.22,30.09,12,2,14,0.00
2013-5-7,69.7,60.2,52.7,61.9,56.8,51.6,99,89,71,30.11,29.99,21,3,21,0.13
2013-5-8,72.9,63.1,56.7,62.0,57.0,51.1,99,83,51,30.01,29.90,14,2,14,0.05
2013-5-9,70.8,60.8,53.9,59.2,56.5,53.6,99,87,66,29.96,29.90,11,1,11,0.04
2013-5-10,81.2,65.5,48.5,62.9,56.7,48.1,100,77,42,30.01,29.86,19,2,19,0.88
2013-5-11,73.8,65.0,60.8,67.1,62.8,58.0,99,93,73,29.91,29.69,13,2,13,0.51
2013-5-12,62.0,56.7,45.1,58.1,41.5,28.9,89,60,34,29.99,29.70,20,2,20,0.01
2013-5-13,54.4,47.0,37.2,36.4,31.6,26.3,81,56,35,30.15,29.98,18,2,18,0.00
2013-5-14,61.2,46.7,30.1,46.0,33.0,28.3,96,64,31,30.21,30.04,12,1,12,0.03
2013-5-15,72.2,59.0,48.1,60.1,52.5,43.2,96,80,63,30.08,29.69,17,2,21,0.09
2013-5-16,82.0,67.8,56.0,67.6,60.7,55.1,99,80,51,29.86,29.72,13,1,13,0.04
2013-5-17,76.2,65.9,53.2,55.1,46.6,37.5,78,51,30,30.16,29.86,15,2,17,0.00
2013-5-18,69.0,61.6,57.2,57.2,53.5,48.1,97,76,57,30.24,30.16,12,2,13,0.08
2013-5-19,64.6,60.7,57.7,62.6,59.9,56.9,100,98,93,30.23,30.11,10,2,11,0.04
2013-5-20,78.8,68.9,61.3,70.3,65.5,61.3,100,90,74,30.13,29.96,11,1,13,0.00
2013-5-21,81.7,72.1,0.0,72.4,68.6,63.3,100,88,71,29.97,29.84,11,2,12,0.00
2013-5-22,87.2,75.6,67.0,75.3,70.3,66.2,100,85,61,29.89,29.79,17,2,17,0.00
2013-5-23,77.5,70.5,63.3,70.2,67.0,62.3,98,89,74,29.87,29.72,15,2,16,0.32
2013-5-24,63.2,54.2,44.7,62.2,50.0,38.1,100,86,66,30.07,29.69,26,5,26,0.08
2013-5-25,62.2,52.8,44.1,41.1,37.2,34.8,87,57,38,30.10,30.01,29,6,29,0.01
2013-5-26,70.3,56.6,45.0,43.7,39.0,34.6,88,54,30,30.21,30.07,22,2,22,0.00
2013-5-27,72.5,56.7,37.7,48.3,42.5,36.9,98,65,33,30.28,30.15,12,1,13,0.00
2013-5-28,66.4,59.1,52.2,64.9,57.3,48.1,100,94,85,30.21,30.08,8,1,9,0.21
2013-5-29,89.0,74.5,60.6,71.4,65.7,60.6,100,78,44,30.09,30.02,15,2,16,0.00
2013-5-30,92.3,78.7,62.4,70.9,66.6,61.8,99,70,42,30.14,30.06,11,1,11,0.00
2013-5-31,89.2,77.5,62.7,72.1,66.6,57.3,99,72,37,30.11,29.98,13,2,14,0.00
2013-6-1,89.0,78.4,66.4,73.1,69.3,65.2,97,75,56,30.00,29.88,12,2,12,0.00
2013-6-2,84.1,77.3,69.0,73.2,69.1,66.0,93,76,58,29.89,29.77,15,3,15,0.01
2013-6-3,82.0,71.5,62.1,69.4,65.3,58.1,99,82,58,29.89,29.79,16,1,17,0.25
2013-6-4,75.2,64.2,53.5,58.5,48.7,43.7,90,59,37,30.10,29.89,15,2,15,0.00
2013-6-5,78.8,64.3,46.8,52.4,48.8,36.4,98,62,32,30.19,30.05,10,1,10,0.00
2013-6-6,71.4,63.8,56.4,63.4,57.1,49.8,98,80,48,30.10,29.91,17,2,18,0.53
2013-6-7,68.4,65.0,61.5,68.1,64.7,60.7,100,99,96,29.91,29.57,14,2,14,3.08
2013-6-8,76.8,67.6,60.4,66.0,62.9,59.1,99,86,64,30.07,29.63,13,1,17,0.02
2013-6-9,82.2,69.6,55.5,67.1,61.5,54.9,100,78,51,30.19,30.07,11,1,11,0.00
2013-6-10,70.3,67.1,65.7,66.4,65.0,62.9,99,93,79,30.11,30.03,8,1,9,1.40
2013-6-11,79.5,72.5,64.4,69.4,66.1,61.5,100,82,65,29.78,29.69,14,4,14,0.01
2013-6-12,82.3,73.1,63.0,67.3,63.5,60.4,92,73,53,29.83,29.77,17,2,17,0.00
2013-6-13,83.4,70.9,60.1,72.2,65.2,57.9,98,83,59,29.81,29.38,18,2,19,0.35
2013-6-14,77.5,64.9,55.9,58.5,55.7,52.1,96,74,48,29.93,29.52,20,4,20,0.03
2013-6-15,82.0,67.8,53.3,62.2,57.5,52.8,99,73,44,30.05,29.93,10,1,11,0.00
2013-6-16,80.8,67.7,54.1,70.1,62.0,53.5,98,84,57,30.01,29.83,18,1,18,0.07
2013-6-17,86.2,71.8,62.4,71.4,66.9,61.8,100,86,57,29.92,29.84,22,1,22,0.58
2013-6-18,78.2,67.2,61.8,72.9,65.6,61.5,100,95,80,29.91,29.78,15,0,15,1.09
2013-6-19,78.5,67.7,59.9,63.9,57.8,51.9,100,74,42,30.14,29.87,18,1,18,0.00
2013-6-20,80.1,67.7,52.7,63.4,58.0,52.1,99,74,47,30.26,30.15,11,2,11,0.02
2013-6-21,81.5,69.6,54.3,61.1,55.7,50.2,93,64,38,30.30,30.21,11,1,11,0.00
2013-6-22,85.0,70.9,54.2,69.9,63.2,53.0,98,78,56,30.25,30.09,8,1,12,0.00
2013-6-23,85.3,74.1,61.9,74.6,69.4,61.3,99,86,66,30.18,30.03,11,1,13,0.31
2013-6-24,91.0,75.4,65.8,75.2,70.7,65.5,100,87,56,30.09,29.97,16,1,18,0.61
2013-6-25,90.9,76.4,63.2,75.2,69.5,63.2,100,81,49,30.01,29.84,21,1,21,0.02
2013-6-26,89.2,76.2,65.2,75.2,69.4,64.2,98,81,58,29.88,29.75,23,1,23,0.25
2013-6-27,86.5,74.7,67.2,75.5,71.4,67.2,100,91,65,29.80,29.55,11,1,14,2.43
2013-6-28,85.9,73.5,67.2,72.2,69.6,65.5,99,89,60,29.57,29.47,12,1,14,0.38
2013-6-29,85.8,75.3,64.2,69.9,67.2,63.1,100,78,47,29.68,29.48,11,1,11,0.01
2013-6-30,83.5,76.0,70.2,75.7,72.2,67.6,99,88,71,29.85,29.68,17,2,17,0.01
2013-7-1,86.0,75.6,70.4,75.9,72.9,69.7,100,92,70,29.94,29.83,14,2,14,1.84
2013-7-2,83.8,76.9,0.0,76.2,73.1,72.1,95,85,71,30.10,30.05,16,3,16,0.08
2013-7-3,84.7,79.4,75.6,75.7,74.4,73.2,93,85,71,30.20,30.14,10,2,12,0.05
2013-7-4,86.0,78.8,73.3,76.3,73.2,71.6,96,84,69,30.22,30.13,14,3,14,0.00
2013-7-5,87.2,80.0,73.3,76.1,73.7,71.9,97,82,65,30.18,30.07,13,3,13,0.00
2013-7-6,92.5,81.9,72.3,76.7,73.6,70.7,96,77,52,30.14,30.01,11,2,14,0.00
2013-7-7,90.3,78.5,69.3,77.6,72.1,68.4,97,82,59,30.07,29.93,17,1,17,0.80
2013-7-8,85.3,73.9,67.4,73.5,69.0,65.2,98,86,59,30.05,29.99,11,1,15,0.28
2013-7-9,83.5,75.1,69.5,75.1,71.5,68.2,99,89,73,30.05,29.96,4,1,11,0.50
2013-7-10,85.2,78.2,73.4,76.8,74.0,71.2,98,87,72,29.98,29.79,6,2,14,0.12
2013-7-11,84.0,76.3,71.6,74.7,69.5,61.2,97,81,56,29.92,29.79,5,1,14,0.04
2013-7-12,73.9,70.7,67.3,69.5,65.3,60.1,97,84,63,30.03,29.91,6,2,15,1.56
2013-7-13,84.5,75.2,68.6,74.9,71.5,67.7,98,89,70,30.30,30.02,6,2,14,0.09
2013-7-14,89.4,79.8,72.8,75.5,73.1,69.7,98,81,56,30.35,30.26,5,1,12,0.00
2013-7-15,93.7,81.1,68.4,76.4,72.1,67.5,98,76,49,30.29,30.17,4,1,10,0.00
2013-7-16,92.7,82.2,73.2,74.4,71.4,67.1,97,73,46,30.23,30.15,7,2,14,0.00
2013-7-17,92.8,81.3,70.0,74.6,71.0,67.1,98,74,45,30.21,30.09,5,1,12,0.00
2013-7-18,95.5,83.9,72.3,79.1,75.3,71.0,97,77,52,30.10,29.98,3,1,10,0.00
2013-7-19,94.7,84.5,77.4,80.6,76.4,67.9,96,78,55,30.00,29.83,6,2,13,0.00
2013-7-20,90.0,80.9,73.0,76.0,72.1,68.0,89,75,58,29.87,29.78,6,2,14,0.00
2013-7-21,87.3,78.0,69.9,74.1,70.8,68.6,96,80,57,29.94,29.86,4,1,10,0.01
2013-7-22,86.6,77.9,70.8,75.0,71.8,68.8,97,83,62,29.94,29.75,6,2,17,0.84
2013-7-23,85.5,76.4,69.7,74.6,71.0,68.2,99,85,61,29.78,29.61,5,1,14,1.70
2013-7-24,78.5,72.2,65.0,68.4,64.5,52.9,98,78,54,29.95,29.66,7,3,15,0.00
2013-7-25,73.0,64.3,55.9,63.4,56.9,51.8,95,77,65,30.05,29.94,5,2,12,0.00
2013-7-26,81.3,70.5,60.0,63.4,60.3,54.8,97,73,42,30.08,30.02,5,2,12,0.00
2013-7-27,81.4,71.1,59.9,70.2,64.9,58.8,98,82,63,30.07,29.92,7,2,16,0.00
2013-7-28,83.9,73.8,67.9,72.5,67.8,63.5,94,82,58,29.97,29.88,6,2,13,0.00
2013-7-29,80.8,71.0,61.2,68.6,60.2,52.8,98,72,43,30.15,29.96,6,2,13,0.10
2013-7-30,79.3,67.8,56.3,62.5,58.6,55.2,97,75,48,30.22,30.15,5,1,11,0.00
2013-7-31,79.1,69.6,57.6,68.6,63.1,56.7,97,81,59,30.17,30.03,4,1,11,0.00
2013-8-1,77.6,70.5,66.8,71.1,67.8,64.5,98,91,79,30.03,29.82,5,2,12,0.68
2013-8-2,82.7,73.1,65.4,68.1,65.4,60.8,99,79,52,29.95,29.83,6,2,16,0.00
2013-8-3,76.1,68.8,63.0,67.3,64.9,62.1,98,88,72,29.96,29.90,4,1,10,0.02
2013-8-4,76.7,68.0,59.6,62.7,58.5,53.3,98,74,46,30.02,29.89,10,2,18,0.00
2013-8-5,76.6,65.3,54.1,59.8,54.8,48.0,97,73,40,30.11,30.02,5,1,12,0.00
2013-8-6,72.0,64.6,55.9,65.3,60.7,54.8,97,88,74,30.11,30.05,7,2,15,0.00
2013-8-7,76.3,69.9,65.0,71.2,67.6,63.5,97,92,83,30.11,30.03,6,2,15,0.18
2013-8-8,84.5,75.1,68.2,75.7,71.8,67.3,99,90,71,30.05,29.98,6,2,15,0.21
2013-8-9,84.3,77.7,73.1,77.5,74.0,71.6,97,89,76,29.99,29.83,6,3,18,0.08
2013-8-10,82.0,74.5,66.2,71.8,66.5,62.6,96,77,56,30.07,29.91,5,2,11,0.00
2013-8-11,82.7,71.9,60.6,68.7,64.1,59.8,98,78,54,30.14,30.02,4,1,10,0.00
2013-8-12,84.5,74.7,68.0,71.7,68.2,63.8,98,82,53,30.04,29.92,5,1,12,0.00
2013-8-13,81.3,70.2,0.0,71.2,68.0,65.2,98,90,67,29.92,29.73,8,1,10,3.92
2013-8-14,73.0,64.7,55.0,65.1,53.0,48.3,95,67,48,30.09,29.80,9,4,22,0.01
2013-8-15,76.3,62.4,49.2,58.2,52.6,47.3,98,75,38,30.19,30.09,6,1,12,0.00
2013-8-16,78.0,64.7,50.8,62.1,55.3,50.1,98,75,41,30.22,30.15,3,1,10,0.00
2013-8-17,80.8,67.5,53.0,63.4,57.1,52.2,98,73,42,30.28,30.22,4,1,10,0.00
2013-8-18,73.2,66.5,62.2,62.6,60.7,57.3,97,83,61,30.26,30.16,5,1,10,0.00
2013-8-19,73.3,66.3,59.1,67.2,62.8,58.2,97,89,77,30.17,30.07,4,1,8,0.00
2013-8-20,84.8,71.3,59.7,71.1,65.1,59.3,99,83,48,30.24,30.09,4,1,10,0.00
2013-8-21,85.7,72.0,59.3,72.9,66.8,58.8,99,85,55,30.20,30.06,8,1,19,0.17
2013-8-22,84.1,75.9,70.2,74.0,71.2,67.7,98,86,64,30.08,29.91,5,1,18,0.19
2013-8-23,75.2,69.4,60.5,69.1,64.7,59.6,98,86,65,30.12,29.93,5,1,11,0.00
2013-8-24,79.4,67.1,55.7,60.2,56.6,52.4,98,72,42,30.36,30.12,5,1,13,0.00
2013-8-25,79.0,65.1,51.4,64.5,56.8,50.6,99,78,44,30.43,30.27,5,1,11,0.00
2013-8-26,85.1,71.7,58.5,68.2,62.6,56.3,93,75,51,30.28,29.96,6,2,14,0.00
2013-8-27,86.7,76.0,67.7,72.4,68.3,65.3,96,78,55,29.96,29.87,7,2,15,0.00
2013-8-28,79.3,72.0,67.8,74.4,70.2,67.0,98,94,80,29.91,29.82,5,1,11,0.03
2013-8-29,82.4,73.3,69.5,71.4,69.5,68.0,97,89,65,30.02,29.87,6,2,9,0.01
2013-8-30,81.8,73.4,66.7,74.0,69.6,65.0,98,88,72,30.03,29.88,9,2,14,0.13
2013-8-31,86.0,76.7,70.1,76.0,72.4,68.9,97,87,70,29.89,29.79,7,2,12,0.00
2013-9-1,86.1,78.5,72.6,75.0,73.1,72.0,97,84,64,29.84,29.76,7,2,11,0.01
2013-9-2,85.5,76.0,66.3,75.0,72.1,64.0,98,88,61,29.78,29.71,21,1,29,0.92
2013-9-3,79.8,71.9,61.7,69.0,62.6,56.0,99,75,49,29.91,29.72,10,2,17,0.01
2013-9-4,79.4,67.4,57.1,62.0,57.5,55.0,95,73,44,30.03,29.91,10,2,13,0.00
2013-9-5,78.5,66.0,55.0,63.0,56.2,49.0,97,74,39,30.12,29.96,10,2,17,0.00
2013-9-6,70.4,59.8,48.9,51.0,45.4,36.0,95,62,29,30.24,30.13,9,2,11,0.00
2013-9-7,77.3,61.5,45.3,59.0,52.1,44.0,97,75,41,30.14,29.91,5,1,11,0.00
2013-9-8,80.0,69.8,60.7,66.0,60.5,48.0,97,74,54,30.05,29.84,13,3,15,0.01
2013-9-9,73.7,62.9,47.1,64.0,55.5,46.0,95,78,64,30.19,30.05,9,2,11,0.00
2013-9-10,85.4,75.9,67.1,76.0,71.2,65.0,95,85,70,30.15,30.05,8,2,11,0.00
2013-9-11,89.9,80.0,70.9,78.0,73.5,70.0,99,82,60,30.10,29.97,8,2,14,0.00
2013-9-12,84.8,74.9,68.1,75.0,70.9,67.0,98,88,68,29.97,29.70,8,2,26,0.48
2013-9-13,74.1,67.0,59.1,68.0,58.2,49.0,99,75,47,29.88,29.65,17,4,19,0.04
2013-9-14,62.9,55.4,46.0,51.0,48.0,45.0,96,77,57,30.15,29.88,12,3,16,0.00
2013-9-15,70.7,56.8,41.5,56.0,49.6,41.0,97,79,51,30.22,30.07,6,1,10,0.00
2013-9-16,69.4,61.3,56.6,59.0,55.6,50.0,97,83,59,30.23,30.02,9,2,16,0.10
2013-9-17,64.6,53.7,44.4,50.0,43.8,40.0,95,71,45,30.41,30.23,11,2,17,0.00
2013-9-18,68.4,53.2,39.5,50.0,44.5,39.0,97,76,42,30.34,30.19,9,1,11,0.00
2013-9-19,74.4,57.5,41.8,58.0,50.6,41.0,98,81,51,30.20,30.06,5,1,10,0.00
2013-9-20,75.9,62.4,47.6,62.0,55.5,47.0,98,80,55,30.08,29.95,7,2,12,0.00
2013-9-21,74.4,63.5,53.0,65.0,59.6,52.0,99,88,65,29.98,29.67,15,2,18,0.83
2013-9-22,67.5,60.8,53.2,61.0,52.8,45.0,98,77,52,29.91,29.67,12,3,19,0.02
2013-9-23,63.8,55.1,45.4,47.0,44.4,41.0,95,68,51,30.05,29.92,12,3,16,0.00
2013-9-24,69.7,54.4,42.9,51.0,46.3,41.0,97,77,46,30.08,29.92,8,2,13,0.00
2013-9-25,72.4,55.2,41.6,53.0,47.0,41.0,98,78,39,29.96,29.86,6,1,10,0.00
2013-9-26,72.6,58.2,45.0,59.0,51.9,44.0,97,82,50,30.06,29.92,3,0,10,0.00
2013-9-27,71.4,61.9,53.2,59.0,55.2,50.0,95,80,49,30.23,30.06,8,1,12,0.00
2013-9-28,73.2,60.1,50.6,56.0,52.7,49.0,97,79,49,30.29,30.21,7,1,12,0.00
2013-9-29,71.7,57.5,45.1,58.0,51.1,44.0,97,82,53,30.21,30.05,6,1,10,0.00
2013-9-30,72.6,57.1,44.3,56.0,50.8,44.0,98,82,47,30.08,29.97,5,1,9,0.00
2013-10-1,77.7,62.3,47.8,62.0,55.7,47.0,97,81,52,30.03,29.92,8,1,13,0.00
2013-10-2,81.8,65.7,51.5,65.0,58.9,51.0,97,81,54,30.03,29.95,16,2,19,0.00
2013-10-3,80.7,67.4,54.7,66.0,60.8,54.0,97,81,54,30.10,30.02,5,1,8,0.00
2013-10-4,83.8,69.4,57.1,68.0,63.5,56.0,99,83,55,30.06,29.97,4,1,12,0.00
2013-10-5,85.5,72.9,62.4,70.0,65.9,62.0,98,81,51,30.05,29.97,5,1,10,0.00
2013-10-6,81.6,71.5,65.6,71.0,67.2,65.0,98,87,67,30.02,29.91,8,3,14,0.00
2013-10-7,73.7,65.0,54.8,71.0,62.4,48.0,98,91,73,30.00,29.73,13,4,31,0.53
2013-10-8,64.8,54.8,44.8,50.0,46.9,44.0,97,77,50,30.29,30.00,12,2,15,0.00
2013-10-9,59.3,54.3,47.3,50.0,47.5,44.0,97,78,69,30.34,30.22,9,2,16,0.00
2013-10-10,56.8,54.8,51.7,56.0,52.8,48.0,97,93,76,30.22,29.97,9,3,18,1.39
2013-10-11,61.7,59.3,56.5,61.0,58.5,56.0,98,97,94,30.02,29.93,15,3,18,2.57
2013-10-12,69.4,63.5,59.7,60.0,54.5,47.0,95,74,50,30.18,30.00,10,3,15,0.00
2013-10-13,68.2,59.6,50.7,57.0,52.5,49.0,92,78,56,30.33,30.17,8,2,16,0.00
2013-10-14,67.6,57.0,49.9,54.0,51.0,49.0,96,82,57,30.33,30.21,6,1,9,0.00
2013-10-15,71.5,56.0,43.6,56.0,48.6,43.0,99,79,41,30.23,30.08,7,1,10,0.00
2013-10-16,67.2,59.3,51.7,60.0,55.4,49.0,97,87,72,30.09,29.90,8,1,8,0.00
2013-10-17,70.5,63.9,59.6,64.0,61.4,58.0,98,91,76,29.90,29.68,8,2,15,0.07
2013-10-18,62.5,55.2,42.9,59.0,46.2,42.0,96,73,51,29.99,29.75,15,4,21,0.00
2013-10-19,62.3,51.1,39.5,55.0,46.7,39.0,97,86,61,29.99,29.75,10,2,15,0.12
2013-10-20,59.8,50.1,39.7,49.0,40.3,37.0,95,71,45,30.07,29.80,11,3,20,0.00
2013-10-21,64.8,50.0,34.9,47.0,40.5,34.0,97,74,41,30.14,29.95,9,2,17,0.00
2013-10-22,59.3,50.5,41.0,52.0,45.1,34.0,98,82,59,29.95,29.78,5,1,10,0.01
2013-10-23,53.7,45.7,39.5,39.0,36.3,32.0,89,72,47,29.82,29.63,11,2,13,0.00
2013-10-24,50.1,41.4,36.6,36.0,32.2,28.0,87,71,48,30.07,29.82,11,2,22,0.00
2013-10-25,51.3,42.4,35.3,37.0,33.1,30.0,81,70,55,30.27,30.07,13,3,24,0.00
2013-10-26,53.7,42.4,28.4,35.0,30.9,27.0,95,67,43,30.26,29.91,11,2,21,0.00
2013-10-27,55.2,46.4,34.2,37.0,33.6,31.0,91,63,44,30.14,29.90,14,2,17,0.00
2013-10-28,60.2,43.0,29.8,40.0,35.0,29.0,96,77,45,30.28,30.14,6,1,11,0.00
2013-10-29,60.1,47.6,36.5,43.0,38.9,35.0,95,74,49,30.37,30.29,4,1,8,0.00
2013-10-30,56.9,50.0,40.6,54.0,48.7,40.0,98,95,89,30.32,30.16,4,1,10,0.02
2013-10-31,65.8,59.0,51.6,61.0,56.3,51.0,99,91,78,30.19,29.76,10,3,21,0.05
2013-11-1,69.8,63.0,52.8,64.0,57.9,52.0,98,84,56,29.75,29.54,14,4,28,0.04
2013-11-2,65.5,54.4,46.6,54.0,46.8,41.0,99,78,52,29.82,29.61,10,2,14,0.00
2013-11-3,51.5,45.1,33.4,44.0,32.3,22.0,84,63,40,30.45,29.82,17,4,19,0.00
2013-11-4,45.0,36.0,26.7,29.0,22.2,16.0,86,60,32,30.64,30.46,7,1,16,0.08
2013-11-5,56.2,45.0,32.2,45.0,38.0,29.0,93,77,60,30.62,30.47,8,1,12,0.06
2013-11-6,63.2,54.6,47.3,52.0,48.5,44.0,90,81,63,30.46,30.04,10,3,19,0.00
2013-11-7,57.7,52.8,41.5,56.0,47.9,28.0,95,84,55,30.04,29.81,13,4,20,0.04
2013-11-8,47.4,40.7,32.5,33.0,28.6,26.0,82,63,48,30.27,30.00,14,3,23,0.04
2013-11-9,50.6,39.3,26.2,36.0,29.9,25.0,93,72,46,30.32,29.99,11,2,16,0.03
2013-11-10,57.6,47.3,34.2,37.0,32.3,29.0,86,57,41,30.13,29.90,16,5,26,0.00
2013-11-11,54.1,46.6,37.5,39.0,33.2,29.0,71,60,45,30.24,29.98,11,3,20,0.00
2013-11-12,49.3,37.1,24.5,37.0,23.1,14.0,77,58,46,30.34,29.95,13,5,24,0.00
2013-11-13,39.8,31.1,24.7,22.0,18.4,14.0,80,61,42,30.43,30.33,15,3,25,0.00
2013-11-14,55.1,39.7,26.9,32.0,20.7,12.0,85,53,19,30.33,30.20,12,2,17,0.00
2013-11-15,57.6,39.9,26.0,36.0,29.7,24.0,92,71,31,30.25,30.16,4,0,7,0.00
2013-11-16,55.5,47.7,38.7,48.0,44.1,35.0,97,88,74,30.31,30.23,9,2,10,0.09
2013-11-17,62.9,55.8,49.4,59.0,53.5,48.0,99,92,79,30.23,29.71,11,3,21,0.01
2013-11-18,63.5,57.9,46.6,60.0,38.7,26.0,96,53,28,29.87,29.64,19,5,26,0.09
2013-11-19,46.1,41.5,31.3,28.0,25.7,22.0,70,54,45,30.35,29.87,17,6,23,0.00
2013-11-20,46.5,34.6,25.5,25.0,20.2,14.0,84,58,28,30.57,30.34,6,1,10,0.00
2013-11-21,49.7,39.4,23.1,43.0,31.5,19.0,88,74,65,30.59,30.38,6,1,8,0.00
2013-11-22,54.1,49.7,46.6,52.0,47.0,43.0,98,90,83,30.37,29.96,7,1,12,0.05
2013-11-23,51.0,39.9,28.5,48.0,27.2,9.0,90,61,43,30.11,29.98,20,6,29,0.00
2013-11-24,28.7,25.1,22.0,12.0,4.1,-1.0,64,42,30,30.45,30.12,18,7,33,0.00
2013-11-25,32.9,26.6,19.7,18.0,13.1,10.0,70,58,41,30.53,30.33,10,2,13,0.00
2013-11-26,47.0,34.4,31.7,47.0,26.7,13.0,99,76,47,30.33,29.61,11,2,16,0.54
2013-11-27,56.8,37.9,29.4,57.0,34.6,18.0,99,88,62,29.90,29.44,17,7,31,0.26
2013-11-28,34.9,29.7,26.4,25.0,18.1,-99.9,84,63,50,30.47,29.91,17,2,26,0.01
2013-11-29,37.9,28.5,20.1,25.0,21.0,18.0,94,75,53,30.72,30.46,12,2,19,0.11
2013-11-30,37.5,28.0,18.2,27.0,22.1,15.0,93,79,63,30.73,30.37,5,1,11,0.10
2013-12-1,44.4,34.4,22.1,31.5,28.1,21.0,95,79,58,30.37,30.02,4,1,8,0.02
2013-12-2,47.2,38.7,33.4,37.0,34.1,31.0,94,84,62,30.01,29.86,4,0,6,0.17
2013-12-3,53.1,40.4,31.4,38.0,34.7,30.0,95,82,54,30.00,29.88,6,1,9,0.00
2013-12-4,52.2,43.6,31.4,48.0,39.3,30.0,97,85,73,30.09,29.99,5,1,8,0.00
2013-12-5,58.5,52.9,48.7,58.0,52.5,48.0,99,98,97,30.07,29.90,8,2,10,0.00
2013-12-6,61.0,47.1,35.3,61.0,46.1,34.0,99,96,90,30.14,29.85,12,4,16,0.86
2013-12-7,37.8,34.2,28.6,35.0,29.4,23.0,96,83,66,30.52,30.08,13,4,20,0.27
2013-12-8,28.9,26.8,25.1,28.0,22.6,18.0,97,84,67,30.58,30.30,9,2,11,0.00
2013-12-9,34.9,32.8,28.8,35.0,32.3,28.0,99,98,96,30.29,30.00,9,2,12,0.39
2013-12-10,33.6,28.7,20.7,32.0,25.3,-99.9,99,89,76,30.18,29.94,14,-6,14,0.10
2013-12-11,32.7,20.8,9.0,20.7,15.5,6.6,94,81,59,30.37,30.17,12,1,12,0.07
2013-12-12,26.2,19.7,10.2,18.9,11.6,7.0,93,72,48,30.39,30.20,16,2,17,0.00
2013-12-13,39.4,25.4,12.7,26.4,15.5,7.5,89,67,48,30.33,30.18,18,2,19,0.03
2013-12-14,32.2,29.0,22.6,31.5,26.0,19.6,97,89,75,30.37,29.71,20,2,20,0.31
2013-12-15,38.3,32.2,26.6,35.6,29.2,21.7,97,89,72,29.89,29.58,18,2,23,0.03
2013-12-16,31.3,25.1,18.7,24.8,15.7,10.9,85,68,52,30.22,29.88,24,4,24,0.00
2013-12-17,30.4,24.9,19.4,25.9,21.3,16.0,95,87,68,30.19,29.94,11,1,11,0.03
2013-12-18,36.0,27.3,19.8,24.6,21.5,17.6,95,80,55,30.21,29.97,15,2,15,0.03
2013-12-19,45.0,30.0,16.0,30.9,24.5,14.0,95,81,53,30.20,30.06,11,1,11,0.00
2013-12-20,49.5,40.1,30.6,40.3,33.0,28.8,94,77,55,30.10,29.97,15,1,15,0.00
2013-12-21,62.2,53.5,41.4,55.9,48.7,37.4,95,84,74,29.99,29.87,15,3,15,0.00
2013-12-22,64.4,60.6,56.8,63.0,58.9,55.4,98,94,89,29.95,29.78,26,5,27,0.22
2013-12-23,58.5,50.9,35.8,57.6,48.2,-99.9,99,91,74,30.18,29.88,20,0,20,0.56
2013-12-24,37.2,31.4,22.8,30.0,23.0,12.7,88,71,59,30.41,30.14,25,5,25,0.00
2013-12-25,28.0,23.8,18.1,17.6,12.8,-99.9,78,64,53,30.54,30.39,14,-1,14,0.00
2013-12-26,38.3,27.6,21.0,30.9,23.0,17.4,94,83,61,30.39,30.19,13,2,13,0.02
2013-12-27,45.3,28.4,18.1,26.4,21.4,16.7,95,78,36,30.39,30.28,11,1,15,0.01
2013-12-28,55.6,36.8,21.6,31.6,26.4,19.8,94,70,35,30.30,30.09,15,1,15,0.00
2013-12-29,43.9,39.0,33.4,43.3,36.8,29.1,98,92,68,30.10,29.47,16,2,16,0.90
2013-12-30,41.7,34.7,25.3,39.4,28.9,16.5,99,80,63,30.17,29.75,23,3,23,0.00
2013-12-31,35.8,27.9,21.9,26.6,18.7,14.5,81,68,55,30.31,30.06,20,3,20,0.00
2014-1-1,39.6,28.7,18.0,27.9,22.3,15.3,91,77,61,30.40,30.16,12,1,12,0.00
2014-1-2,31.8,27.8,18.9,28.4,24.5,16.9,94,87,76,30.16,29.63,13,2,13,0.00